Fitchburg, MA

4:28 PM EST on December 06, 2019 (GMT -0500)
Fitchburg Municipal

Weather History for KFIT - July, 2019

Change the Weather History Date:

Sunday, July 21, 2019

  Actual Average (KORH) Record (KORH)
Temperature  
Mean Temperature 85 °F -  
Max Temperature 96 °F 80 °F 95 °F (1926)
Min Temperature 75 °F 62 °F 48 °F (1939)
Cooling Degree Days 20    
Growing Degree Days 35 (Base 50)    
Moisture  
Dew Point 67 °F    
Average Humidity 55    
Maximum Humidity 76    
Minimum Humidity 36    
Precipitation  
Precipitation 0.00 in - - ()
Sea Level Pressure  
Sea Level Pressure 29.75 in    
Wind  
Wind Speed 8 mph (West)    
Max Wind Speed 25 mph    
Max Gust Speed 30 mph    
Visibility 10 miles    
Events      
Averages and records for this station are not official NWS values.
T = Trace of Precipitation, MM = Missing Value Source: NWS Daily Summary

Daily Weather History Graph

Daily Weather History Graph

Search for Another Location

Airport or City:

Astronomy

Jul. 21, 2019 Rise Set
Actual Time 5:28 AM EDT 8:18 PM EDT
Civil Twilight 4:54 AM EDT 8:51 PM EDT
Nautical Twilight 4:12 AM EDT 9:33 PM EDT
Astronomical Twilight 3:24 AM EDT 10:21 PM EDT
Moon 11:06 PM EDT (7/21) 9:50 AM EDT (7/21)
Length of Visible Light 15h 56m
Length of Day
14h 50m
Waning Gibbous, 80% of the Moon is Illuminated
Jul 21
Waning Gibbous
Jul 24
Last Quarter
Jul 31
New
Aug 7
First Quarter
Aug 15
Full

Hourly Weather History & Observations

Time (EDT) Temp. Heat Index Dew Point Humidity Pressure Visibility Wind Dir Wind Speed Gust Speed Precip Events Conditions
12:52 AM 81.0 °F 82.5 °F 64.0 °F 56% 29.74 in 10.0 mi WNW 6.9 mph - N/A   Clear
1:52 AM 81.0 °F 82.7 °F 64.9 °F 58% 29.74 in 10.0 mi West 11.5 mph - N/A   Clear
2:52 AM 79.0 °F - 66.9 °F 66% 29.73 in 10.0 mi WNW 5.8 mph - N/A   Clear
3:52 AM 80.1 °F 82.3 °F 66.9 °F 64% 29.73 in 10.0 mi WNW 10.4 mph - N/A   Clear
4:52 AM 78.1 °F - 68.0 °F 71% 29.73 in 10.0 mi Variable 3.5 mph - N/A   Clear
5:52 AM 75.9 °F - 68.0 °F 76% 29.74 in 10.0 mi Calm Calm - N/A   Clear
6:52 AM 79.0 °F - 69.1 °F 72% 29.74 in 10.0 mi SSE 4.6 mph - N/A   Clear
7:52 AM 82.0 °F 85.9 °F 70.0 °F 67% 29.75 in 10.0 mi SE 3.5 mph - N/A   Clear
8:52 AM 82.9 °F 86.5 °F 69.1 °F 63% 29.75 in 10.0 mi West 6.9 mph - N/A   Clear
9:52 AM 82.9 °F 86.5 °F 69.1 °F 63% 29.75 in 10.0 mi WSW 8.1 mph - N/A   Clear
10:52 AM 88.0 °F 92.1 °F 69.1 °F 53% 29.73 in 10.0 mi WSW 9.2 mph 19.6 mph N/A   Clear
11:52 AM 91.0 °F 95.6 °F 69.1 °F 48% 29.71 in 10.0 mi WSW 12.7 mph 21.9 mph N/A   Clear
12:52 PM 91.0 °F 96.6 °F 70.0 °F 50% 29.71 in 10.0 mi WSW 12.7 mph 21.9 mph N/A   Partly Cloudy
1:52 PM 95.0 °F 97.0 °F 64.0 °F 36% 29.71 in 10.0 mi NW 25.3 mph 29.9 mph N/A   Clear
2:52 PM 93.9 °F 96.1 °F 64.9 °F 38% 29.72 in 10.0 mi WNW 12.7 mph 28.8 mph N/A   Partly Cloudy
3:52 PM 95.0 °F 97.4 °F 64.9 °F 37% 29.73 in 10.0 mi West 13.8 mph 20.7 mph N/A   Clear
4:52 PM 93.0 °F 95.0 °F 64.9 °F 39% 29.73 in 10.0 mi West 15.0 mph - N/A   Clear
5:52 PM 91.9 °F 94.1 °F 64.9 °F 41% 29.74 in 10.0 mi West 10.4 mph 18.4 mph N/A   Clear
6:52 PM 90.0 °F 91.7 °F 64.9 °F 43% 29.76 in 10.0 mi WNW 11.5 mph - N/A   Clear
7:52 PM 87.1 °F 88.9 °F 64.9 °F 48% 29.77 in 10.0 mi WNW 6.9 mph - N/A   Clear
8:52 PM 82.9 °F 85.0 °F 66.0 °F 56% 29.79 in 10.0 mi West 4.6 mph - N/A   Clear
9:52 PM 82.0 °F 84.1 °F 66.0 °F 58% 29.81 in 10.0 mi WNW 8.1 mph - N/A   Clear
10:52 PM 80.1 °F 82.1 °F 66.0 °F 62% 29.82 in 10.0 mi NW 6.9 mph - N/A   Clear
11:52 PM 79.0 °F - 64.9 °F 62% 29.83 in 10.0 mi NNW 5.8 mph - N/A   Clear